Wind_Speed
12 11 11 11 11 11 10 10 10 10 10 10 10 11 11 12 12 13 13 15 16 16 16 17 18 17 16 15 14 16 17 18 18 18 19 20 21 19 18 18 18 18 18 17 17 17 17 17 17 17 16 17 17 17 18 18 19 20 20 20 20 20 21 22 22 23 24 25 25 26 26 27 27 27 27 27 27 27 27 27 27 27 27 27 27
12 12 13 13 12 11 10 10 10 10 10 11 11 12 12 12 12 13 13 14 16 16 17 17 17 17 16 14 13 14 17 18 18 18 19 20 20 19 18 18 18 19 18 17 17 17 17 17 17 17 17 17 17 17 18 19 19 19 19 20 20 21 21 22 23 24 25 26 27 27 27 28 28 28 28 28 27 27 27 27 28 28 28 28 28
13 14 15 15 14 13 12 11 11 11 11 12 12 12 12 12 13 13 14 14 15 16 17 17 17 17 16 15 13 14 16 17 18 19 20 20 20 19 18 18 18 19 18 17 17 17 17 17 17 17 17 17 17 18 18 19 19 19 19 20 21 22 22 23 24 25 26 27 27 27 27 28 27 27 27 27 27 27 27 28 28 28 29 29 29
15 16 16 16 16 15 14 14 13 13 13 13 13 13 13 13 13 14 15 15 16 16 16 17 17 17 16 16 15 15 16 16 18 19 20 20 20 19 18 18 19 18 17 17 17 17 17 17 17 17 17 17 18 18 18 18 19 19 20 21 22 22 23 24 25 26 26 26 26 26 26 26 26 26 26 26 26 26 27 27 28 28 29 29 30
16 17 17 17 17 17 17 16 16 15 15 15 15 14 14 14 14 14 15 15 16 16 16 16 16 16 16 16 16 16 16 17 18 20 20 20 19 18 18 19 18 17 17 17 17 17 17 17 17 17 17 18 18 18 18 18 19 20 21 22 22 23 24 24 25 25 25 25 25 25 25 24 24 24 24 25 25 25 26 26 27 27 28 29 29
17 17 18 18 18 18 18 18 18 17 17 17 16 16 15 15 15 14 14 15 16 17 17 17 16 16 16 16 17 17 17 18 19 20 20 20 19 18 19 19 18 17 16 17 17 18 18 17 17 17 17 17 17 17 18 18 19 21 22 22 23 23 23 24 24 24 24 23 23 23 23 22 23 23 23 23 23 23 24 25 25 26 27 27 27
16 17 17 17 18 18 18 18 18 18 17 17 17 17 17 17 16 15 14 15 17 17 18 17 17 17 17 17 17 18 18 19 20 21 20 19 19 19 19 18 17 16 16 17 17 18 17 17 17 17 17 17 17 17 18 19 20 21 22 22 22 22 22 22 22 22 21 21 21 21 21 21 21 21 21 22 22 22 23 24 24 24 24 24 24
16 17 17 17 17 17 18 18 18 18 17 17 16 17 17 17 16 16 15 16 16 17 18 17 17 17 17 17 17 18 18 19 20 21 20 19 19 19 18 17 16 16 16 16 17 17 17 17 17 17 17 17 17 18 18 19 20 21 21 20 20 20 20 20 20 19 19 19 19 19 19 20 20 20 21 21 22 22 23 23 23 23 22 22 23
16 16 17 17 16 17 17 17 18 18 17 16 16 17 17 17 16 15 16 16 16 17 17 17 18 18 17 17 17 18 19 20 20 20 19 19 19 18 17 16 16 16 16 16 16 16 16 16 17 17 17 17 17 17 18 18 19 19 19 18 18 18 18 18 18 17 17 17 18 18 18 19 19 20 20 21 21 22 22 22 22 22 22 22 22
16 16 16 16 16 17 17 17 17 18 17 16 16 17 17 17 16 15 15 16 16 17 17 18 18 18 18 17 17 18 20 20 20 19 18 18 18 17 16 15 16 16 16 16 16 15 15 15 16 17 16 16 16 17 17 18 17 17 17 16 16 16 16 16 16 16 16 16 17 17 17 18 19 20 20 21 21 21 21 21 22 22 22 23 23
16 16 16 16 16 16 17 17 17 17 17 17 17 17 17 18 18 17 16 16 17 17 18 19 19 19 18 17 18 19 20 20 19 18 17 17 17 16 15 14 15 16 16 16 15 14 14 14 15 16 16 15 16 16 16 16 15 15 14 14 15 15 15 16 16 16 16 16 16 17 17 18 19 19 19 20 20 20 21 21 22 22 22 23 23
17 17 16 16 16 16 17 17 17 17 17 17 17 17 17 18 19 19 18 18 18 19 19 20 20 19 18 18 19 19 19 19 18 17 16 15 15 14 14 14 15 16 16 15 14 14 13 13 14 15 14 14 14 15 15 15 13 12 12 13 14 14 15 15 15 16 16 16 17 17 18 18 19 19 19 19 19 20 20 21 22 22 23 23 23
17 17 17 16 17 17 17 17 17 17 17 18 18 18 18 19 19 20 20 20 20 20 20 20 19 19 19 19 20 20 18 17 16 16 15 14 12 12 13 13 14 15 15 15 14 13 12 12 13 13 13 13 14 14 14 13 11 10 11 12 13 13 13 14 15 15 16 16 17 17 18 19 19 19 19 19 20 20 21 21 22 22 23 23 23
18 18 17 17 17 17 17 17 17 17 17 17 18 19 19 20 20 20 21 21 21 21 21 20 20 20 20 19 19 18 17 16 15 15 14 13 11 11 12 13 14 15 15 14 13 12 11 11 11 12 12 13 13 13 12 11 9 8 9 10 11 12 12 13 14 15 15 16 16 17 18 19 19 20 21 21 22 22 23 23 23 22 23 23 23
18 18 18 17 17 18 17 17 17 17 17 17 18 19 20 20 20 21 21 22 22 22 22 21 21 21 19 18 17 15 15 14 14 13 12 11 10 11 12 13 13 14 14 14 13 11 10 9 9 10 10 11 12 12 11 9 7 7 8 9 10 10 11 12 14 14 15 15 16 17 17 17 18 19 21 22 23 24 24 24 23 23 23 23 23
17 17 18 17 17 17 17 17 17 17 17 17 18 19 20 20 20 20 21 22 22 22 21 21 21 20 19 17 15 13 12 12 12 12 10 10 10 10 11 11 12 12 13 13 13 12 11 9 8 8 9 10 11 11 10 8 6 5 6 7 8 9 10 11 13 14 14 14 14 15 16 16 18 20 21 23 24 24 24 24 23 23 23 23 23
16 16 17 17 17 16 16 17 17 17 17 18 18 18 20 20 20 20 20 21 21 20 19 19 19 18 17 16 14 13 12 11 11 10 8 8 8 9 10 10 9 10 11 12 12 11 11 10 8 7 7 8 9 10 9 7 5 4 5 6 7 7 8 10 11 12 13 13 13 13 15 16 18 20 22 23 24 25 24 23 23 22 22 22 23
15 16 17 17 16 16 16 16 16 17 17 17 17 18 19 20 20 20 19 20 20 20 18 17 16 15 15 14 13 12 11 11 10 8 7 6 6 6 8 7 7 7 8 10 11 11 11 11 9 7 6 7 7 8 7 6 5 4 4 5 5 6 7 8 10 11 12 13 13 13 14 16 18 20 22 24 25 25 24 23 21 20 20 22 23
14 15 15 16 16 16 15 15 16 16 16 16 16 17 18 19 19 19 18 18 18 18 17 16 15 13 12 12 11 11 11 10 9 8 6 6 5 5 6 5 4 5 7 8 10 10 10 10 9 7 6 5 6 6 6 5 4 3 3 4 4 5 6 7 9 10 11 13 13 13 14 16 18 20 22 25 26 25 23 21 19 18 19 22 25
13 13 14 14 15 15 15 15 15 15 16 16 16 16 16 17 17 17 17 16 16 15 15 15 14 13 12 10 9 10 11 11 10 8 7 6 7 7 6 4 3 4 5 6 8 9 9 9 9 8 6 5 5 5 5 4 3 3 3 3 4 5 6 7 8 10 11 12 13 13 15 16 18 20 23 25 25 24 22 18 16 16 19 22 24
14 13 13 13 13 14 14 15 15 15 15 16 16 15 15 15 15 15 15 14 14 13 13 13 13 12 11 10 9 9 10 10 10 9 8 7 8 8 7 5 4 4 4 6 8 9 8 8 8 7 7 5 4 4 3 3 2 2 2 4 5 6 6 8 9 10 11 12 13 14 15 16 18 20 22 23 24 22 19 16 14 15 18 20 22
14 13 13 13 13 13 14 14 15 15 15 15 15 15 15 14 14 14 14 14 13 13 12 11 11 11 11 10 9 9 9 9 9 9 9 9 8 9 7 6 4 3 3 5 7 8 8 7 7 6 6 6 4 3 2 1 1 2 2 4 5 6 7 8 8 9 10 11 13 14 15 17 19 21 22 22 21 20 17 15 14 15 17 19 21
14 14 13 13 13 13 13 14 14 15 15 15 15 14 14 13 13 13 13 13 13 12 12 12 11 11 11 10 10 10 9 8 8 8 8 9 9 9 7 6 5 3 2 3 4 5 6 7 6 6 5 5 4 3 2 1 2 2 3 4 5 6 7 8 8 9 10 11 12 14 16 18 19 20 20 20 19 17 15 14 14 16 17 19 21
15 14 14 14 13 13 13 14 14 14 14 14 14 14 14 13 13 12 12 12 12 12 12 12 12 11 11 11 12 12 11 8 7 7 7 8 9 9 7 6 5 5 3 2 3 4 5 6 6 6 5 4 4 3 2 2 3 4 5 5 6 7 8 8 8 9 10 11 13 15 17 18 19 19 19 17 16 15 14 13 14 16 18 19 21
15 15 15 14 14 14 14 14 14 14 14 14 14 14 14 14 13 13 12 12 12 12 12 11 11 10 10 11 11 12 13 12 9 8 7 6 7 8 8 7 6 6 5 4 3 3 4 5 5 4 5 4 4 4 4 4 5 6 6 6 7 7 8 8 9 9 11 12 14 15 16 17 18 18 17 16 15 14 13 13 14 16 18 20 21
15 15 15 15 15 14 14 14 14 14 14 14 14 14 14 13 13 13 13 12 12 12 12 11 11 10 10 10 10 10 12 13 13 10 8 6 7 8 8 8 7 7 6 5 4 3 4 5 5 4 5 5 5 6 6 7 7 7 7 7 7 7 8 8 9 10 11 13 15 16 16 16 16 16 15 14 14 14 14 14 15 17 18 20 21
15 15 15 15 14 14 14 14 14 13 13 13 13 13 13 13 13 13 13 12 12 11 11 12 11 11 11 11 11 10 9 10 12 13 12 10 8 8 9 9 9 8 7 6 5 4 5 6 5 5 6 6 7 8 8 8 8 8 8 8 8 8 8 8 9 11 13 15 16 16 15 15 15 14 13 13 13 14 14 15 16 18 19 20 20
14 15 15 14 14 14 14 13 13 13 13 12 12 12 12 12 12 12 12 11 11 11 11 11 11 11 11 11 11 11 10 10 10 11 12 13 12 12 11 11 10 9 8 7 6 5 6 6 6 7 7 8 9 10 9 8 8 9 9 9 9 8 8 9 10 13 15 16 16 16 15 14 13 12 12 12 13 14 15 16 17 18 19 20 20
14 14 14 14 14 13 13 13 12 12 12 12 11 11 11 11 11 11 11 11 11 11 11 11 11 11 11 11 11 11 11 11 10 9 9 10 11 12 13 13 13 12 10 9 8 7 7 7 7 7 8 9 10 10 8 8 9 9 9 9 9 9 9 11 13 15 16 17 16 16 15 14 12 11 12 12 13 15 16 17 18 19 20 19 19
13 13 12 12 12 12 12 12 12 12 11 11 11 11 11 10 10 10 10 10 10 10 11 11 11 11 11 11 12 11 11 11 11 10 9 9 9 10 11 12 13 13 12 11 10 9 10 9 9 8 8 10 11 10 9 9 9 9 10 10 10 11 12 13 15 17 17 16 16 16 15 13 12 12 12 13 14 15 17 18 19 19 19 18 18
13 12 12 12 12 11 11 11 11 11 11 11 11 11 10 10 10 10 9 9 10 10 10 11 11 11 11 12 12 12 11 11 12 12 11 11 11 11 12 13 13 14 13 12 12 11 11 11 10 10 10 11 12 11 11 10 10 10 10 11 12 13 14 15 16 16 16 16 15 16 15 14 13 12 12 13 15 16 17 18 19 19 19 18 18
14 13 13 12 12 11 10 10 10 10 10 11 11 11 10 10 10 10 10 9 9 10 10 11 11 12 12 13 13 13 13 13 13 13 12 12 13 13 13 13 14 15 14 12 12 13 13 12 13 13 12 13 14 14 13 12 11 11 12 13 14 15 15 15 16 15 15 15 15 15 15 14 13 13 14 15 16 16 16 17 19 19 19 19 18
14 14 14 13 13 12 11 10 10 9 9 10 10 11 11 11 10 10 10 10 10 10 10 10 11 11 12 12 13 14 14 13 13 13 13 13 13 13 13 14 14 15 14 13 14 14 15 15 16 15 14 15 15 15 15 15 14 14 14 14 16 16 15 15 16 16 15 15 14 14 13 13 14 15 15 16 16 16 15 17 18 19 19 19 18
14 14 14 13 13 13 12 11 11 10 10 10 10 11 11 11 11 11 11 11 10 10 10 10 10 10 11 11 12 13 13 13 14 14 14 14 14 14 14 15 15 15 15 15 15 16 16 17 17 17 16 16 16 17 16 16 16 16 16 16 17 16 15 15 16 16 15 14 12 11 11 12 14 15 16 16 15 15 15 17 17 17 18 18 17
13 13 13 13 13 12 12 12 11 11 11 11 11 12 12 12 12 12 12 12 11 11 10 9 9 9 10 10 11 12 12 13 13 14 14 15 15 15 15 16 16 16 15 15 15 16 17 17 17 17 18 18 18 18 18 17 17 17 16 17 16 15 13 13 15 15 14 12 10 9 10 12 14 15 15 15 16 16 16 16 16 16 17 17 17
14 13 13 13 13 12 12 12 12 11 11 11 12 12 13 13 13 14 14 13 13 12 12 11 11 10 10 10 10 10 11 12 12 13 13 14 15 15 15 16 16 16 15 15 16 16 17 17 17 17 17 18 19 19 18 18 18 17 17 16 15 14 13 13 13 14 13 11 9 9 11 12 13 14 15 16 17 17 16 15 15 15 16 16 17
15 15 14 14 13 13 13 13 12 12 12 11 12 12 13 13 14 15 15 15 15 14 14 13 13 13 12 11 10 10 11 11 12 12 13 13 14 15 15 15 16 16 16 16 16 16 16 17 17 16 16 17 18 18 17 17 17 17 16 15 14 14 13 12 12 13 12 10 10 11 12 12 12 13 14 16 17 17 15 14 14 14 15 16 17
16 16 16 16 15 15 14 14 13 13 13 13 12 13 13 14 15 15 16 16 16 16 15 15 15 15 14 13 13 13 13 13 12 12 12 12 13 14 15 15 15 15 16 17 17 17 17 17 18 17 16 16 17 18 17 15 15 16 15 13 13 13 12 12 12 12 10 10 11 12 12 12 12 13 14 17 17 16 14 13 14 14 15 16 17
18 18 18 17 17 16 16 15 15 15 15 14 14 14 14 15 16 16 16 16 16 16 16 16 16 16 16 16 15 15 15 15 14 13 13 13 13 13 14 14 14 14 15 16 17 17 18 18 18 18 18 17 17 18 17 15 15 15 14 13 13 13 11 10 11 12 11 11 12 13 12 12 13 14 15 17 17 16 15 14 14 14 15 15 16
21 21 21 21 20 18 18 17 17 16 16 16 16 16 16 16 16 16 16 16 16 16 16 17 17 17 17 17 17 17 17 17 16 15 15 15 15 15 14 14 13 14 14 14 15 15 16 17 17 18 18 18 18 18 18 17 16 15 14 12 14 14 11 10 11 12 13 13 13 14 13 12 13 14 16 17 17 16 16 15 14 14 15 15 16
23 23 23 23 23 22 21 20 19 19 18 18 18 18 17 17 16 16 16 16 17 17 17 17 17 17 18 18 18 19 19 18 18 18 18 18 17 17 17 15 15 14 14 14 14 14 14 15 16 16 16 16 17 16 17 17 16 15 13 12 13 14 14 13 14 14 15 14 14 15 14 12 14 15 16 17 18 18 17 17 15 15 15 16 16
24 24 24 23 23 23 23 23 22 21 21 21 21 20 19 18 17 16 16 16 17 17 18 18 18 18 18 18 19 19 19 20 20 20 19 19 19 19 19 18 17 16 16 16 16 16 15 16 16 16 15 16 16 14 15 15 14 13 13 13 13 14 15 16 17 17 17 16 15 16 15 12 13 16 17 17 19 19 19 18 17 16 15 16 17
25 25 25 24 23 22 22 23 22 22 22 22 22 22 21 20 19 18 17 17 17 17 18 19 19 18 18 18 19 19 20 20 21 21 21 21 21 21 21 20 19 19 18 18 18 18 17 17 18 17 17 18 17 15 14 14 13 12 14 14 14 15 16 17 18 20 20 17 15 16 16 14 12 15 18 17 18 20 21 20 20 19 18 17 17
27 27 27 26 25 23 22 22 22 23 23 23 23 22 23 22 22 21 20 18 18 18 18 19 19 19 19 19 19 19 20 20 21 21 22 22 23 23 23 23 22 21 21 21 21 21 20 20 20 20 20 20 19 19 17 15 14 15 15 16 16 17 18 18 19 20 21 18 15 15 18 17 13 14 18 18 18 20 21 22 22 21 21 20 20
27 27 28 28 27 25 24 23 23 24 24 24 23 22 23 23 24 23 22 21 20 20 19 20 20 20 20 20 20 19 20 20 20 21 22 23 24 24 25 25 24 24 24 23 24 24 24 23 23 23 24 23 22 22 22 18 16 17 18 18 19 19 20 20 20 21 22 20 16 14 18 21 17 15 17 18 18 20 22 23 24 24 24 24 23
28 26 27 29 29 28 26 25 24 24 24 25 24 23 23 23 24 24 24 24 23 22 22 21 21 21 21 21 21 20 20 20 20 21 22 23 23 24 24 25 25 25 25 24 25 26 26 26 25 25 27 27 26 25 26 24 21 21 21 21 21 20 20 21 20 21 23 23 19 15 17 22 22 18 19 20 20 21 24 24 25 25 26 26 26
30 27 27 28 30 30 29 27 26 24 24 25 25 25 24 24 23 23 23 24 24 24 23 23 22 22 22 22 21 21 21 21 21 21 21 22 22 22 22 23 23 23 23 24 25 26 26 25 24 24 26 28 28 27 28 27 25 24 23 22 22 21 21 20 20 21 24 26 24 19 17 21 24 22 21 22 22 23 26 27 26 27 28 28 28
31 29 28 29 30 31 30 29 27 25 25 25 25 26 25 24 23 23 23 24 24 25 25 24 24 23 23 22 22 22 22 22 22 23 23 23 22 21 21 21 21 21 21 23 25 25 25 24 23 23 23 25 26 25 26 27 26 25 24 21 21 23 22 20 20 22 25 27 28 25 20 20 25 24 22 24 24 25 29 30 29 28 28 29 29
29 28 29 30 30 30 30 29 28 27 26 26 26 27 26 25 24 23 23 24 25 26 26 26 26 25 25 25 24 24 24 24 25 26 26 24 22 21 21 21 20 19 19 22 25 25 24 24 23 23 23 23 24 24 24 25 25 25 24 21 22 25 24 22 22 23 25 26 29 30 25 22 25 25 23 25 26 27 30 32 32 30 29 29 29
26 26 27 29 30 30 30 29 28 27 28 27 27 28 27 27 26 25 24 24 25 26 28 28 28 27 26 26 26 26 26 27 28 29 28 27 24 23 23 22 21 19 20 24 27 25 24 23 22 23 23 24 24 24 24 25 25 25 24 22 24 26 25 23 24 25 25 26 30 34 30 25 26 27 25 25 27 29 32 33 34 34 32 31 30
25 25 25 27 28 28 29 29 27 27 29 29 29 29 30 30 29 28 27 26 26 28 28 29 29 29 28 28 28 28 28 29 30 30 30 29 26 25 24 24 22 22 24 27 28 26 25 24 23 23 23 23 24 24 25 26 26 26 25 24 26 27 26 25 26 26 25 25 31 37 34 29 28 28 27 26 25 27 32 34 34 36 36 34 32
Wind_Direction
104 103 104 106 109 112 114 119 123 129 132 130 130 133 134 135 138 144 149 149 147 145 146 147 143 141 142 143 143 136 126 121 122 125 127 130 131 130 124 118 113 109 107 103 100 97 95 93 90 87 87 87 87 87 87 87 86 85 84 83 83 82 81 80 79 77 76 74 72 71 69 67 65 63 61 59 57 55 53 51 49 47 45 43 41
101 100 100 101 102 102 105 109 113 119 125 128 130 132 133 133 134 135 139 144 146 145 146 147 146 145 146 146 145 134 124 122 124 126 129 132 133 129 123 117 112 109 107 104 100 98 95 93 89 89 89 89 89 90 90 89 88 87 86 85 84 83 83 81 79 77 75 73 71 68 66 64 62 60 58 56 55 53 51 50 48 46 44 42 40
101 98 98 99 98 99 102 106 110 113 117 123 126 129 132 133 134 135 137 141 144 145 145 147 148 149 150 148 142 132 125 125 125 127 131 134 133 128 121 116 112 110 108 104 101 99 96 92 90 91 91 91 92 92 92 91 90 88 87 85 84 84 83 81 78 76 73 71 69 66 64 63 61 58 56 54 53 51 49 47 46 44 43 41 38
102 99 97 98 99 99 101 105 107 108 108 111 116 122 128 133 136 136 139 144 145 145 145 146 148 150 150 146 139 132 128 128 127 130 134 135 132 126 120 115 112 110 108 105 102 99 96 93 93 93 93 93 94 95 94 93 91 89 87 86 85 83 81 78 76 74 71 69 67 65 63 60 58 56 54 52 50 48 46 45 43 42 40 38 35
103 101 99 99 99 99 99 101 102 103 103 104 108 115 122 129 132 133 137 143 145 145 144 145 147 148 146 142 137 133 131 131 130 133 136 136 131 124 119 115 113 112 109 106 104 100 96 94 95 95 95 96 97 97 96 93 92 90 88 86 83 81 78 76 74 72 69 67 65 62 60 57 55 53 51 49 47 45 43 42 41 39 37 35 33
105 104 103 103 101 99 97 97 97 98 99 100 105 110 116 121 123 126 134 140 143 143 143 142 142 141 139 138 136 134 133 133 134 136 138 135 129 122 118 116 115 114 111 108 105 100 97 96 97 96 97 98 99 98 96 95 94 91 87 84 81 79 76 75 72 70 67 65 62 59 57 54 52 49 47 45 43 41 39 38 37 36 35 33 31
109 108 107 105 103 101 99 97 95 94 95 97 101 107 111 115 118 123 130 136 138 138 137 136 135 134 135 136 135 135 135 136 137 138 138 133 126 122 120 119 118 116 112 110 106 101 99 99 99 99 99 99 100 98 97 96 94 90 86 83 80 77 75 73 71 68 66 63 60 57 54 51 48 45 43 40 38 36 34 33 33 32 31 30 29
114 112 109 106 104 102 101 99 97 95 94 95 98 101 103 107 114 120 124 127 129 130 130 130 130 131 132 133 135 135 136 138 139 139 136 130 125 124 123 122 120 116 112 110 106 102 102 102 102 101 100 100 100 99 98 97 94 89 86 83 80 77 74 72 69 66 64 61 58 55 51 48 45 42 39 36 33 31 29 28 27 26 26 27 27
118 114 111 109 106 104 102 100 100 99 98 96 96 96 97 100 106 114 117 119 122 124 126 126 126 127 130 134 136 137 138 139 139 137 133 129 126 126 126 124 120 115 113 110 105 103 104 105 104 103 103 103 103 102 101 98 94 91 88 84 81 77 74 71 67 64 61 57 54 51 48 45 42 38 35 31 29 27 25 24 22 22 24 26 26
119 116 114 113 109 107 105 102 101 102 102 101 99 98 99 100 104 111 116 119 123 124 124 124 124 127 132 136 138 138 138 138 137 133 131 129 129 130 129 125 120 116 114 109 105 104 106 107 107 106 106 107 107 106 104 100 96 93 89 86 82 78 73 68 63 59 54 51 48 45 43 40 38 35 32 28 25 24 22 21 20 21 24 26 26
120 118 116 114 111 109 108 106 104 104 106 106 105 105 106 106 108 113 119 123 125 124 123 124 126 130 135 137 137 136 136 136 134 132 131 132 133 133 130 125 121 118 114 110 107 107 109 109 110 110 111 111 110 110 108 103 99 95 90 87 82 75 68 61 55 50 46 44 42 41 39 37 35 32 29 25 22 20 19 19 19 20 22 26 26
122 120 118 115 113 111 110 109 108 108 110 110 110 111 111 109 109 113 120 124 125 124 123 125 128 131 134 135 134 134 136 136 134 133 134 136 136 132 129 127 123 119 115 112 110 110 112 112 114 116 116 114 112 113 111 107 102 96 90 85 79 71 62 54 48 43 40 38 38 37 36 34 31 27 24 22 20 18 18 17 17 17 18 21 25
124 121 120 119 116 113 111 110 111 111 113 115 115 115 114 112 111 113 118 122 124 123 123 124 126 129 131 133 134 136 138 137 134 134 136 139 135 129 128 127 123 119 115 113 112 113 115 116 118 120 119 117 117 117 115 111 106 97 87 81 76 68 60 52 44 39 35 34 34 33 32 30 26 22 19 17 16 15 15 16 15 15 14 16 21
126 125 124 122 117 113 111 110 112 113 113 115 116 116 115 114 113 114 116 119 121 121 122 124 126 128 130 133 136 138 138 136 135 136 139 139 135 130 129 128 124 120 117 114 114 116 118 119 121 123 125 124 125 123 120 115 108 96 85 80 74 67 58 49 42 36 32 29 27 28 27 26 23 20 18 15 14 13 12 12 11 11 11 11 15
131 129 126 122 116 112 111 111 112 113 113 114 114 114 114 114 115 116 116 117 118 119 122 125 127 129 132 135 138 139 138 137 137 139 140 138 136 134 133 133 129 125 122 119 118 120 122 123 123 125 130 131 130 128 126 121 111 95 84 78 71 61 52 44 38 33 29 25 22 22 22 21 19 17 15 14 12 11 10 9 8 7 7 7 9
133 131 127 122 117 113 113 113 113 114 114 114 115 115 115 116 117 118 118 118 120 121 124 128 130 132 136 140 143 144 141 140 140 141 140 137 137 139 139 138 135 130 126 123 124 128 129 129 128 128 133 136 134 132 132 129 116 95 81 76 67 57 47 39 34 30 26 22 17 16 16 15 13 12 12 11 9 8 8 7 6 4 4 5 6
134 132 129 126 121 118 116 116 116 116 116 117 117 118 119 119 120 121 123 125 126 127 130 132 133 136 141 145 147 146 143 142 142 140 137 133 136 142 145 144 139 132 126 126 130 135 136 136 135 135 139 141 137 136 136 134 122 98 80 74 66 55 42 33 28 23 19 16 13 11 10 8 7 8 7 8 7 7 6 6 5 4 5 7 8
136 134 133 131 128 124 121 119 118 117 117 119 122 123 123 123 123 126 128 130 131 132 134 136 138 140 144 146 146 144 142 141 140 137 131 125 130 142 146 145 139 129 123 129 136 142 144 142 142 146 152 147 139 135 134 131 120 100 79 68 60 47 36 27 19 13 10 8 7 4 3 2 2 3 4 4 5 5 5 5 6 8 12 15 15
138 137 136 135 133 129 126 123 121 120 120 122 125 127 127 127 128 130 132 133 133 135 137 140 143 145 146 145 145 143 141 139 136 133 124 121 129 139 141 136 127 119 121 132 142 147 149 147 146 152 162 160 143 133 129 122 110 91 70 56 46 32 23 16 8 4 2 1 0 358 357 358 359 360 0 1 3 3 3 5 11 18 23 24 23
142 141 139 138 136 134 132 129 127 126 126 128 129 130 131 131 132 134 135 135 136 138 141 144 147 149 149 149 147 144 143 141 137 133 126 126 133 140 143 137 122 115 122 136 147 152 155 153 153 156 166 172 155 137 127 118 104 77 50 32 23 16 8 3 359 356 356 354 353 353 354 356 357 358 358 359 1 2 4 10 19 25 26 26 25
147 146 144 143 141 140 138 137 135 133 133 134 134 135 135 136 136 137 138 139 141 146 148 150 152 153 154 153 149 148 148 145 141 137 134 134 138 144 149 146 140 138 141 149 158 161 162 162 163 164 167 176 173 150 130 114 95 65 34 16 6 3 360 355 353 351 351 350 349 351 354 356 356 355 355 356 359 2 8 15 22 23 22 23 23
153 151 150 150 149 147 146 144 143 141 140 140 140 141 142 142 142 142 144 147 150 154 157 158 159 158 158 156 152 149 150 148 144 141 141 143 146 151 153 150 150 158 167 174 174 169 167 170 173 177 176 179 187 175 149 118 43 23 14 5 356 353 353 350 349 349 350 349 348 351 354 353 352 351 352 355 358 4 10 15 17 17 17 18 19
160 159 157 156 156 155 154 153 151 149 148 147 147 147 147 148 148 148 151 154 156 159 163 163 162 162 162 160 155 149 150 150 145 143 147 151 154 158 159 155 156 174 208 215 199 182 177 179 181 192 196 192 200 200 180 233 311 328 341 345 342 343 346 346 348 349 348 347 348 350 350 348 347 348 351 355 358 3 8 10 11 11 12 13 14
165 165 165 164 163 163 163 162 161 159 157 156 155 155 155 155 155 156 158 160 160 163 167 166 164 166 166 163 158 153 150 149 144 142 148 158 164 165 164 165 170 181 200 220 213 206 204 199 190 200 215 214 223 242 256 281 295 308 319 325 328 333 337 340 344 345 343 344 345 345 343 343 344 346 350 353 355 359 2 4 6 7 8 8 8
167 169 171 171 170 170 171 170 169 168 166 165 164 164 163 163 163 164 165 167 167 168 169 169 167 165 164 162 160 157 152 146 144 144 149 163 174 174 173 181 189 190 190 195 201 214 225 220 208 213 234 246 254 268 282 285 289 295 301 308 314 321 327 334 339 340 339 339 339 339 339 340 343 345 346 348 351 354 356 358 0 2 4 3 1
167 169 172 174 174 175 175 174 174 173 173 172 171 171 171 171 171 172 173 174 174 172 169 169 167 163 161 160 161 164 160 151 147 148 154 169 183 188 189 193 202 203 198 196 197 210 227 225 219 227 249 264 271 276 280 280 281 285 290 299 307 315 322 328 333 334 333 333 334 338 342 344 344 343 343 344 346 349 351 353 355 356 357 356 354
171 171 172 174 175 176 176 176 175 176 176 176 176 175 176 177 178 178 178 179 178 176 175 174 171 168 166 165 162 167 172 165 157 155 160 174 186 198 203 205 211 213 210 206 202 208 223 223 219 226 239 252 264 267 267 269 276 286 294 301 308 313 318 321 324 326 328 331 335 340 346 347 344 342 342 342 343 345 347 348 349 349 348 348 347
178 177 175 175 177 177 178 178 178 178 177 177 178 179 179 180 182 183 183 183 182 181 181 180 177 175 174 172 168 168 174 179 178 170 170 177 184 193 204 211 217 219 219 219 215 219 229 228 225 229 234 241 250 256 261 270 280 288 293 297 303 309 314 317 322 327 330 333 336 341 346 347 344 341 340 340 340 340 341 342 343 342 342 343 344
183 183 180 179 181 181 181 181 182 182 182 181 181 183 184 184 186 187 187 188 187 186 187 186 185 184 182 179 178 178 179 184 190 192 190 191 192 196 201 206 213 217 220 222 222 227 238 242 241 242 244 247 255 262 271 277 280 285 289 294 301 308 316 321 325 328 331 333 335 339 344 346 344 342 339 337 336 337 337 338 339 339 339 341 343
189 188 187 187 187 187 186 186 187 188 189 189 189 190 191 190 191 192 193 195 194 193 194 194 193 193 192 190 189 189 189 190 192 195 197 200 207 211 210 211 214 216 219 223 224 227 236 243 247 250 254 258 265 273 277 277 279 285 292 298 304 311 317 322 324 326 328 329 332 336 340 343 342 340 338 335 335 337 337 336 336 336 338 340 341
197 196 195 195 197 196 194 195 196 195 194 196 198 199 199 198 197 199 201 202 203 203 202 201 201 201 201 203 202 199 198 199 200 203 202 200 205 213 215 217 221 222 223 225 227 232 238 244 249 251 255 262 270 276 278 280 284 289 293 298 303 308 313 317 319 322 323 326 330 335 338 340 339 336 335 334 336 340 339 336 335 335 337 339 339
204 203 203 204 206 207 207 207 209 208 204 205 207 208 208 207 205 204 206 208 209 210 210 208 208 207 207 209 210 209 208 208 209 211 212 212 216 220 221 223 227 230 231 232 234 239 243 247 251 252 253 260 267 274 279 283 287 290 293 296 299 302 307 312 315 318 321 325 330 334 334 335 334 334 335 337 342 345 343 335 333 336 338 339 338
210 209 210 210 211 214 216 217 221 223 221 221 221 220 218 217 215 213 214 215 215 214 215 214 214 213 214 215 215 215 217 218 219 220 219 220 224 229 231 233 235 237 238 237 238 240 243 245 249 253 255 258 264 271 278 284 289 291 292 294 296 299 306 311 312 316 321 325 330 332 330 328 329 331 334 338 342 346 342 333 331 337 341 342 342
216 216 216 216 216 218 221 222 226 230 233 236 237 236 234 232 229 226 224 225 225 223 221 219 218 218 219 220 220 221 223 223 223 225 226 225 227 229 233 235 239 240 240 240 241 243 246 250 254 259 263 265 270 275 278 281 285 289 291 292 294 299 306 308 308 313 320 326 329 327 323 321 323 326 330 334 339 342 338 330 331 338 343 346 348
223 222 223 224 223 224 226 227 229 233 236 240 243 245 245 244 242 240 237 235 235 236 235 231 228 226 225 225 225 226 228 229 229 230 230 230 232 234 236 239 243 246 246 246 246 248 252 256 259 262 267 271 273 277 282 286 288 291 293 293 294 300 305 303 303 307 316 325 327 320 315 315 318 322 327 332 337 339 335 330 332 339 344 348 353
228 226 226 229 231 230 231 232 233 235 238 241 244 246 246 246 245 245 245 244 243 242 243 243 241 238 234 232 232 232 233 234 234 235 235 236 238 240 243 245 248 252 254 255 255 255 257 261 263 264 268 271 274 278 284 289 291 294 295 295 299 303 302 300 301 304 312 322 322 315 313 315 317 322 328 332 335 336 335 330 331 337 343 349 355
230 227 226 228 231 234 236 237 238 239 239 239 242 244 245 244 243 244 245 246 246 245 245 246 248 247 245 241 238 238 239 239 238 238 238 239 241 244 247 249 253 257 261 262 263 264 265 267 270 272 270 271 275 279 283 287 289 292 294 296 300 300 298 300 300 301 310 319 318 316 317 315 316 322 327 331 332 334 334 329 327 333 341 349 354
227 226 226 225 227 230 233 236 238 240 241 240 238 239 240 242 243 243 244 244 245 245 244 245 246 248 249 247 245 243 244 245 244 244 243 242 242 244 247 250 253 257 261 262 265 267 269 271 274 277 277 276 277 281 286 288 288 290 295 298 299 297 297 301 300 300 307 312 312 315 316 312 312 319 324 328 330 333 333 328 325 329 338 347 353
222 221 221 222 223 224 226 230 233 236 239 240 239 237 236 238 241 242 244 244 244 244 244 244 244 244 246 247 247 247 249 250 251 251 251 250 248 248 249 250 251 254 257 260 263 266 269 272 274 277 280 281 281 282 287 289 288 289 295 300 300 296 294 295 294 296 303 308 308 312 315 310 309 315 321 325 330 334 334 330 325 325 333 342 350
224 221 220 219 219 219 220 223 225 229 234 237 239 239 238 237 238 239 241 243 244 245 244 244 242 242 242 244 244 245 248 250 252 253 253 254 254 254 254 253 253 254 256 259 262 263 265 268 271 273 275 278 279 279 282 286 287 288 292 295 295 294 294 293 290 293 300 305 306 309 313 308 303 309 317 322 328 333 334 331 325 320 325 333 342
227 225 224 223 221 219 219 219 220 222 226 230 233 237 239 239 238 237 239 240 243 245 246 245 244 242 242 242 243 244 245 247 249 250 251 252 255 257 259 260 260 260 261 263 264 264 265 266 269 272 274 275 276 277 279 282 284 286 287 286 283 284 288 292 292 292 295 300 302 305 308 301 294 301 312 319 324 328 330 329 324 318 318 324 331
233 230 228 227 227 226 225 223 222 222 224 226 228 230 233 236 236 236 237 239 242 245 246 247 246 245 243 243 242 243 244 245 246 247 248 250 253 256 259 261 262 263 265 267 268 268 269 269 270 273 275 275 275 275 276 278 279 279 280 278 275 275 278 281 284 285 288 293 296 297 297 292 289 297 307 314 318 321 323 325 323 317 314 315 320
241 239 234 230 227 228 230 230 228 227 228 230 231 232 232 231 231 232 234 238 242 244 246 247 248 248 247 246 245 244 244 245 245 246 248 249 251 254 257 259 260 262 263 265 267 268 269 271 272 273 273 273 274 272 270 271 271 270 272 273 273 274 275 275 276 279 283 287 289 289 288 284 284 291 299 307 311 312 315 318 319 317 313 310 310
237 241 242 237 230 226 227 232 233 232 232 234 236 238 238 237 234 231 229 232 236 240 243 246 248 249 249 248 248 247 247 247 247 248 249 250 251 253 256 258 259 260 262 263 265 268 269 270 272 274 273 273 274 273 269 267 266 266 268 270 272 275 277 276 275 276 279 282 282 282 283 282 280 282 290 297 302 304 307 311 313 313 312 310 308
226 233 239 243 240 233 227 228 232 234 235 236 237 239 242 244 245 242 238 234 232 234 238 242 245 247 247 248 248 248 248 249 250 250 250 251 253 255 257 259 260 261 263 265 267 269 269 269 270 272 274 273 273 274 272 270 268 269 269 270 273 275 276 276 276 276 278 279 278 276 279 281 280 278 282 289 293 295 299 304 308 309 309 308 308
223 227 234 240 244 243 236 231 230 233 236 238 238 238 240 243 247 250 250 246 241 237 237 240 243 247 249 250 251 251 252 252 252 252 253 253 255 257 260 262 263 264 265 266 268 269 269 269 269 270 272 273 273 274 275 275 274 274 274 275 276 275 274 275 277 277 278 280 279 273 271 275 278 279 280 284 287 290 294 299 304 306 307 306 305
228 232 237 240 241 241 240 237 233 232 235 239 240 240 240 241 243 246 249 250 248 244 242 241 242 246 250 253 256 258 259 259 259 258 258 258 259 262 263 265 266 267 269 269 269 269 269 270 269 269 271 273 275 276 277 278 278 277 278 279 279 277 274 273 273 274 276 281 282 278 269 269 274 277 279 282 286 290 293 298 301 302 304 304 304
234 238 243 244 240 235 235 238 238 236 236 238 241 242 243 242 243 244 245 246 246 245 243 241 240 242 246 249 252 255 257 259 260 259 259 260 261 263 266 267 269 271 273 274 273 272 273 274 274 274 274 276 278 279 279 280 280 279 278 278 276 274 273 272 271 271 274 278 282 282 275 268 271 274 276 280 285 288 292 296 298 299 300 301 301
236 240 243 244 241 234 231 235 239 241 241 241 242 244 246 246 246 246 246 247 247 247 247 245 243 243 245 247 249 251 253 255 256 258 258 259 260 261 263 264 266 269 272 272 272 273 275 278 280 281 281 281 282 283 283 283 282 281 280 277 273 272 272 271 270 270 273 277 280 282 280 273 273 276 275 276 281 286 288 292 295 297 297 298 298
241 243 242 241 239 238 237 237 238 241 244 246 247 249 250 250 249 249 249 249 249 249 250 250 250 248 248 249 249 251 252 254 256 258 260 261 261 261 262 264 265 266 266 265 267 270 274 277 280 281 282 282 282 283 283 283 283 282 281 278 274 273 272 271 269 270 272 275 278 281 283 279 279 281 281 280 282 286 288 291 294 296 296 296 298
242 244 242 238 237 240 242 240 239 239 242 246 250 253 254 253 252 252 251 251 251 250 251 252 252 251 249 249 249 248 248 251 254 258 261 264 265 265 265 266 266 265 263 264 267 271 274 275 275 274 274 276 277 278 278 279 279 278 277 274 272 272 272 270 270 271 271 272 275 280 284 285 285 287 288 288 288 289 290 293 295 296 297 298 299
Height
5923 5924 5924 5925 5925 5925 5925 5925 5925 5925 5926 5926 5927 5928 5928 5929 5929 5930 5930 5931 5931 5933 5934 5935 5936 5937 5938 5939 5940 5941 5941 5941 5942 5943 5944 5944 5945 5946 5948 5948 5949 5949 5950 5950 5950 5950 5950 5951 5951 5951 5951 5950 5950 5950 5949 5949 5948 5948 5948 5948 5948 5948 5948 5947 5946 5946 5945 5944 5943 5943 5942 5941 5940 5939 5938 5937 5937 5936 5935 5934 5933 5932 5931 5930 5928
5924 5925 5925 5925 5925 5925 5925 5926 5926 5926 5926 5927 5927 5928 5928 5929 5930 5930 5931 5932 5932 5933 5934 5936 5937 5938 5939 5940 5942 5943 5943 5943 5943 5944 5945 5946 5947 5948 5949 5950 5950 5951 5951 5951 5951 5952 5952 5952 5952 5952 5952 5952 5952 5951 5951 5951 5950 5950 5950 5950 5950 5950 5949 5949 5948 5947 5946 5946 5945 5944 5944 5943 5942 5941 5940 5939 5938 5938 5937 5936 5935 5934 5932 5931 5930
5926 5926 5926 5926 5926 5926 5926 5926 5926 5926 5927 5927 5928 5928 5929 5930 5930 5931 5932 5933 5933 5934 5935 5936 5937 5938 5939 5941 5943 5944 5944 5944 5945 5946 5947 5948 5949 5949 5950 5951 5952 5952 5952 5953 5953 5953 5954 5954 5954 5954 5954 5953 5953 5953 5953 5953 5952 5952 5952 5952 5952 5952 5951 5950 5950 5949 5948 5947 5947 5946 5945 5945 5944 5943 5942 5941 5940 5939 5938 5937 5936 5935 5934 5932 5931
5927 5927 5927 5927 5927 5927 5927 5927 5927 5927 5928 5928 5929 5929 5930 5930 5931 5932 5933 5934 5934 5935 5936 5937 5938 5939 5941 5942 5944 5945 5946 5946 5946 5947 5948 5949 5950 5951 5952 5953 5953 5953 5954 5954 5955 5955 5955 5955 5955 5955 5955 5955 5955 5955 5955 5954 5954 5955 5954 5954 5954 5953 5953 5952 5951 5951 5950 5949 5949 5948 5947 5946 5946 5945 5944 5943 5942 5941 5940 5939 5937 5936 5935 5933 5932
5928 5929 5929 5929 5929 5929 5928 5928 5928 5928 5929 5929 5930 5930 5931 5932 5932 5933 5934 5935 5935 5936 5937 5938 5939 5941 5942 5943 5944 5946 5947 5947 5948 5948 5949 5950 5951 5953 5953 5954 5955 5955 5955 5956 5956 5956 5957 5957 5957 5957 5957 5957 5957 5956 5956 5956 5957 5957 5956 5956 5956 5955 5955 5954 5953 5953 5952 5951 5951 5950 5949 5948 5947 5946 5945 5944 5943 5942 5941 5940 5939 5937 5936 5934 5932
5930 5930 5930 5930 5930 5930 5930 5930 5929 5930 5930 5931 5931 5932 5932 5933 5933 5934 5935 5936 5937 5937 5938 5939 5940 5942 5943 5944 5946 5947 5948 5948 5949 5950 5951 5952 5953 5954 5955 5955 5956 5956 5957 5957 5957 5958 5958 5958 5958 5958 5958 5958 5958 5958 5958 5959 5959 5958 5958 5958 5958 5957 5957 5956 5955 5955 5954 5953 5952 5952 5951 5950 5949 5948 5947 5946 5945 5944 5942 5941 5940 5938 5937 5935 5934
5931 5931 5932 5932 5932 5932 5932 5931 5931 5931 5932 5932 5933 5934 5934 5934 5935 5935 5937 5938 5938 5939 5939 5940 5941 5943 5944 5946 5947 5948 5949 5949 5950 5951 5952 5954 5955 5955 5956 5956 5957 5958 5958 5958 5959 5959 5959 5959 5959 5960 5960 5960 5960 5960 5960 5961 5961 5960 5960 5960 5960 5959 5959 5958 5957 5957 5956 5955 5954 5953 5952 5951 5950 5949 5948 5947 5946 5945 5944 5943 5941 5940 5939 5937 5936
5932 5933 5933 5933 5933 5934 5933 5933 5933 5933 5933 5934 5934 5935 5935 5936 5936 5937 5938 5939 5939 5940 5941 5941 5943 5944 5946 5947 5948 5949 5950 5951 5951 5952 5954 5955 5956 5957 5957 5958 5958 5959 5959 5960 5960 5960 5960 5961 5961 5961 5961 5962 5962 5962 5962 5962 5962 5962 5962 5962 5961 5961 5960 5960 5959 5958 5957 5957 5956 5955 5954 5953 5952 5951 5950 5949 5947 5946 5945 5944 5943 5941 5940 5939 5937
5934 5934 5934 5934 5935 5935 5935 5935 5934 5934 5935 5936 5936 5936 5936 5936 5937 5938 5939 5940 5940 5941 5942 5943 5944 5945 5947 5949 5950 5950 5951 5952 5953 5954 5956 5957 5957 5958 5958 5959 5959 5960 5961 5961 5961 5961 5962 5962 5962 5963 5963 5963 5963 5964 5964 5964 5964 5964 5964 5963 5963 5962 5962 5961 5961 5960 5959 5958 5957 5956 5955 5954 5953 5952 5951 5950 5949 5948 5946 5945 5944 5942 5941 5939 5938
5936 5935 5936 5936 5936 5937 5937 5936 5936 5936 5937 5937 5938 5938 5938 5938 5939 5940 5940 5941 5942 5943 5944 5944 5946 5947 5949 5950 5951 5952 5953 5954 5956 5957 5958 5958 5958 5959 5959 5960 5960 5961 5961 5962 5962 5963 5963 5963 5964 5964 5965 5965 5965 5965 5966 5966 5966 5965 5965 5965 5964 5964 5963 5963 5962 5961 5960 5959 5958 5958 5957 5956 5954 5953 5952 5951 5950 5949 5947 5946 5944 5943 5942 5940 5939
5937 5938 5938 5938 5938 5938 5939 5938 5938 5938 5939 5939 5940 5940 5940 5940 5941 5942 5942 5943 5944 5945 5945 5946 5947 5949 5950 5952 5953 5954 5955 5956 5957 5958 5959 5959 5959 5960 5960 5961 5961 5962 5962 5963 5963 5964 5964 5965 5965 5966 5966 5966 5966 5967 5967 5967 5967 5967 5966 5966 5966 5965 5964 5964 5963 5962 5962 5961 5960 5959 5958 5957 5956 5955 5953 5952 5951 5950 5948 5947 5945 5944 5942 5941 5939
5940 5940 5940 5940 5940 5940 5940 5940 5940 5941 5941 5942 5942 5942 5942 5942 5943 5943 5944 5945 5946 5946 5947 5948 5949 5950 5952 5954 5955 5956 5957 5958 5959 5960 5961 5961 5961 5961 5961 5962 5962 5963 5963 5964 5965 5965 5966 5966 5967 5967 5968 5967 5968 5968 5968 5968 5968 5968 5968 5967 5967 5966 5966 5965 5964 5964 5963 5962 5961 5960 5959 5958 5957 5956 5955 5954 5952 5951 5949 5948 5946 5945 5943 5942 5940
5941 5942 5942 5942 5943 5942 5942 5942 5943 5943 5943 5943 5944 5944 5944 5944 5945 5945 5946 5947 5947 5948 5949 5950 5951 5952 5954 5955 5956 5957 5959 5960 5960 5961 5962 5963 5963 5963 5963 5963 5964 5964 5964 5965 5966 5966 5967 5968 5968 5968 5968 5969 5969 5969 5969 5969 5969 5969 5969 5969 5968 5967 5967 5966 5966 5965 5964 5963 5962 5962 5961 5960 5959 5958 5957 5955 5954 5952 5950 5949 5947 5945 5944 5942 5941
5943 5944 5944 5945 5945 5945 5944 5945 5945 5945 5945 5945 5946 5946 5946 5946 5947 5948 5948 5949 5950 5950 5951 5952 5953 5954 5956 5957 5958 5959 5960 5961 5962 5962 5963 5964 5964 5965 5965 5965 5965 5965 5966 5966 5967 5968 5968 5969 5969 5969 5969 5970 5970 5970 5970 5970 5970 5970 5970 5970 5969 5969 5968 5967 5967 5966 5965 5965 5964 5963 5962 5961 5960 5959 5958 5956 5955 5953 5952 5950 5948 5946 5944 5943 5941
5944 5945 5946 5946 5947 5946 5946 5947 5947 5947 5947 5947 5948 5948 5948 5948 5949 5950 5951 5951 5952 5953 5953 5954 5955 5956 5958 5959 5960 5961 5962 5962 5963 5963 5964 5965 5966 5966 5966 5966 5966 5966 5967 5967 5968 5968 5969 5970 5970 5970 5971 5970 5970 5970 5971 5971 5971 5971 5971 5970 5970 5970 5969 5968 5968 5967 5966 5966 5965 5964 5963 5962 5961 5960 5959 5957 5956 5954 5952 5951 5949 5947 5945 5943 5942
5946 5946 5947 5947 5947 5948 5948 5949 5949 5949 5949 5949 5950 5950 5950 5950 5951 5952 5952 5953 5954 5955 5956 5956 5957 5958 5959 5960 5961 5962 5963 5963 5964 5965 5965 5966 5967 5967 5967 5967 5967 5968 5968 5968 5969 5969 5970 5971 5971 5971 5971 5971 5971 5971 5971 5971 5971 5971 5971 5971 5971 5970 5970 5969 5969 5968 5967 5967 5966 5965 5964 5963 5962 5961 5959 5958 5956 5955 5953 5951 5950 5948 5946 5944 5942
5947 5947 5947 5948 5948 5949 5949 5950 5950 5951 5951 5951 5951 5952 5952 5952 5953 5954 5954 5955 5956 5956 5957 5958 5959 5959 5960 5961 5962 5963 5964 5965 5965 5966 5967 5967 5968 5968 5969 5969 5969 5969 5969 5969 5970 5970 5970 5971 5971 5972 5972 5972 5972 5971 5971 5972 5972 5972 5972 5971 5971 5971 5970 5970 5969 5969 5968 5967 5967 5966 5965 5964 5963 5961 5960 5959 5957 5956 5954 5952 5950 5949 5947 5945 5943
5948 5948 5949 5949 5949 5950 5951 5951 5951 5952 5952 5953 5953 5954 5954 5955 5955 5956 5956 5957 5957 5958 5959 5960 5961 5961 5962 5963 5963 5964 5965 5966 5966 5967 5968 5968 5969 5970 5970 5970 5970 5970 5970 5970 5971 5971 5971 5971 5972 5972 5973 5973 5973 5972 5972 5972 5972 5972 5972 5972 5972 5971 5971 5970 5970 5969 5969 5968 5967 5966 5965 5964 5963 5962 5960 5959 5958 5956 5954 5953 5951 5949 5948 5946 5944
5949 5950 5950 5950 5950 5951 5951 5952 5952 5953 5954 5954 5955 5956 5956 5956 5957 5957 5958 5958 5959 5959 5960 5961 5962 5963 5964 5964 5965 5965 5966 5967 5967 5968 5969 5969 5970 5971 5972 5972 5972 5972 5972 5972 5972 5972 5972 5972 5972 5973 5973 5974 5973 5973 5973 5973 5973 5972 5972 5972 5972 5972 5971 5971 5970 5970 5969 5968 5967 5967 5966 5964 5963 5962 5961 5959 5958 5956 5955 5953 5952 5950 5949 5947 5945
5950 5951 5951 5951 5951 5952 5952 5953 5953 5954 5955 5955 5956 5957 5958 5958 5958 5959 5959 5960 5960 5961 5962 5962 5963 5964 5965 5965 5966 5966 5967 5967 5968 5968 5969 5970 5971 5972 5972 5973 5973 5973 5973 5973 5973 5973 5973 5973 5973 5973 5974 5974 5974 5974 5973 5973 5973 5973 5973 5972 5972 5972 5972 5971 5971 5970 5969 5969 5968 5967 5966 5965 5963 5962 5961 5960 5958 5957 5955 5954 5952 5951 5950 5948 5946
5951 5951 5952 5952 5952 5953 5953 5954 5954 5955 5956 5956 5957 5958 5959 5959 5960 5960 5961 5961 5962 5963 5963 5964 5964 5965 5965 5966 5967 5967 5968 5968 5968 5969 5969 5970 5971 5972 5972 5973 5974 5974 5974 5974 5974 5973 5973 5974 5974 5974 5974 5974 5975 5974 5974 5973 5973 5973 5973 5973 5973 5972 5972 5971 5971 5970 5970 5969 5968 5967 5966 5964 5963 5962 5961 5960 5958 5957 5955 5954 5953 5951 5950 5948 5946
5952 5952 5953 5953 5954 5954 5954 5955 5955 5956 5956 5957 5958 5958 5959 5960 5961 5961 5962 5962 5963 5964 5964 5965 5965 5965 5966 5967 5967 5968 5969 5969 5969 5969 5970 5970 5971 5972 5972 5973 5974 5974 5974 5974 5974 5974 5974 5974 5974 5974 5975 5975 5975 5975 5974 5974 5974 5973 5973 5973 5973 5972 5972 5972 5971 5970 5970 5969 5968 5967 5966 5964 5963 5962 5961 5960 5958 5957 5956 5954 5953 5952 5950 5949 5947
5952 5953 5954 5954 5955 5955 5956 5956 5956 5957 5957 5957 5958 5959 5960 5961 5961 5962 5963 5963 5964 5964 5965 5965 5965 5966 5966 5967 5967 5968 5969 5969 5969 5970 5970 5971 5971 5972 5972 5973 5974 5974 5975 5975 5975 5975 5975 5974 5975 5975 5976 5975 5975 5975 5974 5974 5974 5974 5973 5973 5973 5973 5972 5972 5971 5970 5969 5969 5968 5967 5966 5964 5963 5962 5961 5960 5959 5957 5956 5955 5953 5952 5950 5949 5947
5952 5953 5954 5955 5956 5956 5957 5957 5957 5958 5958 5958 5959 5959 5960 5961 5962 5963 5963 5964 5964 5964 5965 5965 5965 5966 5966 5966 5967 5968 5968 5969 5969 5970 5970 5971 5971 5972 5972 5973 5973 5974 5975 5975 5975 5975 5975 5975 5975 5976 5976 5976 5976 5975 5975 5974 5974 5974 5974 5973 5973 5973 5972 5971 5971 5970 5969 5969 5968 5966 5965 5964 5963 5962 5961 5960 5959 5957 5956 5955 5954 5952 5950 5949 5947
5952 5953 5954 5955 5956 5957 5957 5958 5958 5959 5959 5959 5960 5960 5961 5962 5962 5963 5964 5964 5964 5964 5965 5965 5965 5966 5966 5967 5967 5967 5968 5968 5969 5970 5970 5971 5971 5972 5972 5973 5973 5974 5975 5975 5975 5975 5976 5976 5976 5976 5976 5976 5976 5976 5975 5975 5975 5974 5974 5973 5973 5972 5972 5971 5971 5970 5969 5968 5967 5966 5965 5964 5963 5962 5961 5959 5958 5957 5956 5955 5954 5952 5950 5949 5947
5952 5953 5954 5955 5956 5957 5958 5958 5959 5959 5960 5960 5960 5961 5961 5962 5962 5963 5963 5964 5964 5964 5965 5965 5965 5966 5966 5967 5967 5968 5968 5967 5968 5969 5970 5971 5971 5972 5972 5973 5973 5974 5974 5975 5975 5975 5976 5976 5976 5976 5976 5976 5976 5976 5975 5975 5975 5974 5974 5973 5973 5972 5972 5971 5970 5970 5969 5968 5967 5966 5965 5964 5963 5962 5960 5959 5958 5957 5956 5955 5954 5952 5950 5949 5947
5952 5953 5954 5955 5955 5956 5957 5958 5958 5959 5960 5960 5961 5961 5961 5962 5962 5962 5963 5963 5964 5964 5964 5965 5965 5966 5966 5966 5967 5968 5968 5968 5967 5968 5969 5970 5971 5972 5972 5973 5974 5974 5974 5974 5975 5975 5975 5975 5975 5975 5976 5976 5976 5975 5975 5974 5974 5974 5974 5973 5973 5972 5972 5971 5970 5970 5969 5968 5967 5966 5964 5963 5962 5961 5960 5959 5958 5957 5956 5955 5953 5952 5950 5948 5946
5952 5953 5953 5954 5955 5956 5957 5957 5958 5959 5959 5960 5961 5961 5961 5961 5962 5962 5963 5963 5963 5964 5964 5965 5965 5966 5966 5966 5966 5967 5968 5968 5968 5968 5968 5969 5969 5970 5972 5973 5973 5974 5974 5974 5974 5975 5975 5974 5974 5974 5975 5975 5974 5974 5974 5974 5974 5974 5974 5973 5973 5972 5972 5971 5970 5969 5968 5967 5966 5965 5964 5963 5962 5961 5960 5959 5958 5957 5955 5954 5953 5951 5949 5948 5946
5952 5953 5953 5954 5955 5955 5956 5957 5958 5958 5959 5960 5960 5960 5961 5961 5961 5962 5962 5963 5963 5963 5964 5964 5965 5966 5966 5966 5967 5967 5967 5968 5968 5968 5969 5969 5969 5970 5970 5971 5972 5973 5973 5973 5974 5974 5974 5974 5974 5974 5974 5974 5973 5973 5974 5974 5974 5973 5973 5972 5972 5971 5971 5970 5969 5968 5967 5967 5966 5965 5964 5963 5962 5961 5960 5959 5958 5956 5955 5954 5952 5950 5949 5947 5945
5952 5953 5953 5954 5955 5955 5956 5957 5957 5958 5959 5959 5960 5960 5960 5961 5961 5961 5962 5962 5963 5963 5964 5964 5965 5965 5966 5966 5967 5967 5967 5968 5968 5968 5969 5969 5969 5970 5970 5971 5971 5972 5972 5972 5973 5973 5973 5973 5973 5973 5973 5973 5973 5973 5973 5973 5973 5972 5972 5971 5971 5970 5970 5969 5969 5968 5967 5966 5965 5964 5964 5963 5962 5961 5960 5959 5957 5956 5955 5953 5951 5950 5948 5947 5945
5951 5952 5953 5954 5955 5956 5956 5957 5958 5958 5959 5959 5959 5960 5960 5960 5961 5961 5962 5962 5962 5963 5963 5964 5965 5965 5966 5966 5967 5967 5967 5968 5968 5968 5968 5969 5969 5969 5970 5970 5971 5971 5971 5971 5972 5972 5972 5972 5972 5972 5972 5972 5972 5972 5972 5972 5972 5971 5971 5971 5970 5969 5969 5968 5968 5967 5966 5965 5965 5964 5963 5962 5961 5960 5960 5959 5957 5956 5954 5952 5951 5949 5948 5946 5944
5950 5951 5952 5954 5955 5955 5956 5957 5958 5959 5959 5960 5960 5960 5960 5961 5961 5961 5962 5962 5962 5963 5963 5964 5964 5965 5965 5966 5966 5967 5967 5967 5968 5968 5968 5968 5969 5969 5969 5969 5970 5970 5970 5971 5971 5971 5971 5971 5971 5971 5972 5972 5971 5971 5971 5971 5971 5971 5970 5970 5969 5969 5968 5968 5967 5966 5966 5965 5964 5963 5963 5962 5961 5960 5959 5958 5957 5956 5954 5952 5950 5949 5947 5945 5944
5950 5950 5951 5953 5954 5954 5955 5957 5958 5959 5960 5960 5961 5961 5961 5961 5962 5962 5962 5962 5963 5963 5964 5964 5964 5965 5965 5965 5966 5967 5967 5967 5967 5968 5968 5968 5968 5968 5969 5969 5969 5969 5970 5970 5970 5970 5970 5970 5970 5970 5970 5970 5970 5970 5970 5969 5969 5969 5969 5969 5968 5967 5967 5967 5966 5965 5964 5964 5963 5963 5962 5961 5960 5960 5959 5958 5957 5956 5954 5952 5950 5949 5947 5945 5943
5949 5950 5951 5952 5953 5953 5954 5955 5957 5958 5959 5960 5961 5961 5962 5962 5962 5963 5963 5963 5963 5964 5964 5964 5964 5965 5965 5965 5966 5966 5966 5967 5967 5967 5968 5968 5968 5968 5968 5968 5968 5968 5969 5969 5969 5969 5969 5969 5969 5969 5969 5969 5969 5969 5968 5968 5968 5968 5967 5967 5966 5966 5966 5966 5965 5964 5963 5963 5962 5962 5961 5961 5960 5959 5959 5958 5957 5956 5954 5952 5950 5949 5947 5946 5944
5949 5950 5950 5951 5952 5952 5953 5954 5955 5956 5957 5959 5960 5961 5961 5962 5963 5963 5963 5964 5964 5964 5965 5965 5965 5965 5964 5965 5965 5965 5965 5966 5966 5966 5967 5967 5967 5967 5967 5967 5967 5967 5968 5968 5968 5968 5968 5968 5968 5968 5967 5968 5968 5967 5967 5967 5967 5966 5966 5965 5965 5965 5965 5964 5964 5963 5962 5962 5961 5961 5960 5960 5959 5959 5958 5957 5957 5956 5954 5952 5951 5949 5948 5946 5944
5949 5949 5950 5950 5951 5952 5952 5953 5954 5954 5955 5957 5958 5959 5960 5961 5962 5962 5963 5963 5963 5964 5964 5965 5965 5965 5964 5964 5964 5964 5964 5965 5965 5965 5965 5966 5966 5966 5966 5966 5966 5967 5967 5967 5967 5967 5967 5967 5966 5967 5967 5967 5967 5966 5966 5966 5966 5965 5964 5964 5963 5963 5963 5963 5963 5962 5961 5961 5960 5960 5959 5959 5958 5958 5957 5957 5956 5955 5954 5952 5951 5950 5948 5947 5944
5948 5948 5949 5950 5950 5951 5952 5952 5953 5954 5954 5955 5956 5957 5958 5959 5959 5960 5961 5961 5962 5962 5963 5963 5964 5964 5964 5964 5964 5964 5963 5963 5963 5963 5964 5964 5964 5964 5965 5965 5965 5965 5966 5966 5966 5966 5966 5966 5965 5965 5966 5966 5965 5965 5965 5965 5965 5964 5963 5963 5962 5962 5962 5962 5961 5960 5960 5960 5959 5959 5958 5958 5957 5957 5957 5956 5956 5955 5954 5952 5951 5950 5949 5947 5945
5946 5946 5947 5947 5948 5949 5950 5951 5952 5953 5953 5953 5954 5954 5955 5956 5957 5957 5958 5959 5959 5960 5961 5961 5962 5963 5963 5963 5963 5963 5963 5962 5962 5962 5962 5962 5962 5962 5962 5963 5963 5964 5964 5964 5965 5965 5965 5965 5964 5964 5964 5964 5964 5964 5964 5964 5964 5963 5962 5962 5962 5961 5961 5961 5960 5959 5959 5959 5958 5958 5957 5957 5956 5956 5956 5955 5955 5954 5953 5952 5951 5950 5949 5947 5946
5943 5943 5944 5944 5945 5946 5948 5949 5950 5951 5952 5952 5952 5953 5953 5954 5954 5955 5956 5956 5957 5958 5958 5959 5960 5960 5961 5961 5962 5962 5962 5962 5961 5961 5961 5961 5961 5960 5960 5960 5961 5961 5962 5962 5962 5963 5963 5963 5963 5963 5962 5963 5963 5962 5962 5962 5962 5962 5962 5962 5961 5960 5960 5960 5959 5958 5958 5958 5957 5956 5956 5956 5955 5955 5955 5954 5954 5953 5952 5952 5950 5950 5949 5947 5946
5940 5940 5941 5941 5942 5943 5945 5946 5947 5948 5949 5950 5951 5951 5951 5952 5953 5953 5954 5954 5955 5955 5956 5957 5957 5957 5958 5958 5959 5959 5960 5960 5960 5960 5960 5960 5960 5959 5959 5959 5959 5959 5959 5959 5960 5960 5960 5960 5960 5960 5960 5960 5960 5960 5960 5960 5960 5960 5961 5961 5960 5959 5958 5958 5958 5957 5957 5956 5956 5955 5955 5954 5954 5954 5953 5953 5952 5952 5951 5951 5950 5949 5948 5947 5946
5937 5938 5939 5939 5940 5941 5941 5942 5943 5944 5946 5947 5948 5949 5950 5950 5951 5952 5952 5953 5953 5954 5954 5955 5955 5955 5955 5956 5956 5956 5957 5957 5958 5958 5958 5958 5958 5958 5958 5958 5958 5958 5958 5958 5958 5958 5957 5957 5957 5957 5957 5958 5957 5957 5958 5958 5958 5958 5958 5959 5959 5958 5957 5957 5956 5956 5955 5955 5954 5953 5953 5953 5952 5952 5952 5952 5951 5951 5950 5950 5949 5948 5947 5946 5945
5937 5937 5937 5937 5938 5939 5939 5940 5941 5942 5942 5943 5944 5946 5947 5948 5949 5950 5950 5951 5952 5952 5953 5953 5953 5953 5954 5954 5954 5954 5954 5955 5955 5955 5956 5956 5956 5956 5956 5956 5956 5956 5956 5956 5956 5956 5955 5955 5955 5955 5955 5955 5954 5954 5955 5955 5955 5955 5956 5956 5956 5956 5955 5955 5954 5953 5953 5953 5952 5951 5951 5952 5951 5950 5950 5950 5949 5949 5949 5948 5948 5947 5946 5945 5944
5936 5937 5937 5936 5936 5937 5938 5938 5939 5940 5940 5941 5942 5943 5944 5945 5946 5947 5948 5949 5949 5950 5951 5951 5952 5952 5952 5952 5952 5952 5952 5952 5953 5953 5954 5954 5954 5954 5953 5954 5954 5954 5954 5954 5954 5953 5953 5953 5953 5952 5952 5952 5951 5951 5952 5951 5952 5953 5953 5953 5953 5953 5953 5952 5952 5950 5950 5951 5951 5950 5949 5949 5950 5948 5948 5948 5948 5947 5947 5947 5946 5946 5945 5944 5943
5932 5934 5936 5936 5935 5935 5935 5936 5937 5938 5938 5939 5940 5941 5942 5943 5944 5944 5945 5946 5947 5948 5949 5949 5950 5950 5951 5951 5950 5950 5950 5950 5951 5951 5951 5951 5952 5951 5951 5951 5951 5951 5951 5951 5951 5951 5951 5951 5951 5950 5950 5950 5949 5949 5949 5949 5949 5950 5950 5951 5951 5951 5950 5950 5949 5948 5947 5948 5949 5948 5946 5946 5947 5947 5946 5946 5947 5946 5945 5945 5944 5944 5943 5943 5942
5926 5929 5931 5932 5933 5933 5933 5933 5934 5935 5935 5936 5938 5939 5940 5941 5942 5943 5944 5944 5945 5945 5946 5947 5948 5948 5949 5949 5949 5949 5949 5949 5949 5949 5949 5949 5949 5949 5949 5949 5950 5949 5949 5950 5949 5949 5949 5949 5949 5949 5948 5948 5948 5947 5946 5947 5948 5948 5948 5948 5948 5948 5948 5947 5947 5946 5945 5945 5946 5946 5944 5943 5944 5945 5944 5944 5944 5943 5943 5943 5942 5942 5942 5941 5940
5923 5924 5926 5928 5929 5930 5930 5931 5932 5932 5933 5934 5935 5936 5937 5939 5940 5942 5943 5943 5943 5943 5943 5944 5945 5946 5946 5947 5947 5948 5947 5948 5948 5947 5947 5947 5947 5948 5948 5948 5948 5948 5948 5948 5947 5947 5946 5946 5947 5947 5946 5945 5946 5946 5945 5945 5946 5946 5946 5946 5946 5946 5945 5945 5944 5943 5942 5942 5943 5944 5943 5940 5940 5942 5942 5941 5941 5941 5940 5940 5940 5940 5939 5939 5938
5921 5922 5923 5925 5926 5927 5928 5927 5928 5930 5930 5931 5932 5933 5934 5935 5937 5938 5940 5941 5942 5942 5942 5942 5942 5942 5943 5945 5945 5946 5946 5946 5946 5946 5946 5946 5946 5947 5947 5947 5947 5947 5947 5947 5945 5944 5944 5944 5944 5945 5944 5943 5943 5944 5943 5943 5944 5944 5944 5944 5943 5943 5942 5942 5942 5941 5939 5938 5939 5941 5942 5939 5937 5938 5939 5938 5938 5937 5936 5936 5937 5937 5936 5936 5935
5919 5919 5921 5922 5924 5925 5925 5924 5924 5926 5927 5928 5929 5930 5931 5932 5933 5934 5936 5937 5939 5939 5939 5939 5939 5939 5940 5941 5942 5943 5943 5943 5943 5943 5943 5943 5944 5945 5945 5945 5946 5946 5946 5945 5943 5942 5942 5942 5942 5942 5942 5941 5941 5941 5941 5940 5940 5940 5941 5941 5940 5939 5940 5940 5940 5938 5937 5935 5935 5937 5939 5939 5936 5937 5938 5936 5936 5935 5933 5932 5933 5933 5933 5932 5932
5915 5916 5917 5919 5921 5923 5923 5922 5921 5922 5923 5924 5926 5927 5928 5929 5930 5932 5933 5934 5936 5937 5937 5937 5937 5937 5937 5938 5939 5939 5940 5940 5939 5939 5939 5939 5941 5942 5942 5942 5943 5943 5943 5942 5939 5939 5940 5940 5941 5941 5940 5940 5939 5939 5938 5938 5937 5937 5938 5939 5937 5936 5937 5937 5937 5936 5935 5934 5932 5931 5935 5937 5935 5936 5937 5936 5935 5934 5932 5930 5930 5930 5930 5929 5928
5911 5912 5913 5916 5918 5919 5921 5920 5919 5919 5920 5921 5923 5924 5925 5927 5928 5929 5930 5932 5933 5934 5934 5935 5935 5935 5935 5935 5936 5936 5937 5936 5936 5935 5935 5936 5938 5939 5939 5939 5940 5941 5940 5938 5936 5937 5938 5938 5938 5938 5938 5938 5937 5936 5936 5935 5934 5934 5934 5935 5934 5933 5934 5935 5934 5934 5933 5932 5929 5927 5930 5933 5933 5934 5935 5936 5935 5934 5931 5930 5928 5927 5926 5926 5925
5908 5909 5910 5912 5914 5916 5917 5917 5917 5917 5918 5919 5920 5921 5922 5923 5924 5925 5927 5928 5929 5930 5931 5931 5932 5932 5932 5932 5932 5932 5933 5933 5932 5932 5932 5933 5935 5936 5937 5937 5938 5938 5936 5935 5934 5935 5936 5936 5936 5935 5935 5934 5934 5933 5933 5932 5931 5930 5930 5931 5930 5929 5930 5931 5931 5931 5932 5932 5927 5923 5925 5929 5930 5930 5931 5933 5934 5933 5930 5928 5927 5925 5924 5923 5923